Zurück zum Katalog

STARLINK-34560

AktivKommunikationVLEO
NORAD 64700·PAYLOAD·🇺🇸 United States

Gestartet Jun 28, 2025 von Vandenberg Space Force Base

Loading…

Nächste Überflüge (nächste 24 Stunden)

TLE

AktuellSource: CelesTrak SupGP

Epoche: Sep 14, 2026, 21:11 UTC

1 64700C 25142E   26257.88312500  .00003037  00000+0  10561-3 0  2575
2 64700  70.0014 195.7431 0002929 265.0665  28.1989 15.29587406    18

Verfolge STARLINK-34560 in Echtzeit mit AllMySat

Download on the App Store